Location: Archemont
(49.1579°N, 1.7598°E)
Time: 00:52:14
(UTC+00:00)

Altair - All Passes

Search period start: 17 April 2024 00:00
Search period end: 27 April 2024 00:00
Orbit: 1502 x 1682 km, 47.2° (Epoch: 16 April)

Date Brightness Start Highest point End Pass type
(mag) Time Alt. Az. Time Alt. Az. Time Alt. Az.
17 Apr - 01:21:39 10° WNW 01:30:42 49° SSW 01:39:27 10° SE visible
17 Apr - 03:27:59 10° W 03:33:32 17° SW 03:38:59 10° SSW visible
17 Apr - 16:48:02 10° SE 16:50:16 11° ESE 16:52:30 10° ESE daylight
17 Apr - 18:43:54 10° SSW 18:52:50 38° SE 19:01:31 10° ENE daylight
17 Apr - 20:46:50 10° WSW 20:56:44 71° SSE 21:06:16 10° E visible
17 Apr - 22:51:32 10° W 23:01:22 79° S 23:10:48 10° ESE visible
18 Apr - 00:56:24 10° WNW 01:05:34 52° SSW 01:14:26 10° SE visible
18 Apr - 03:02:26 10° W 03:08:30 19° SW 03:14:28 10° S visible
18 Apr - 18:18:56 10° SSW 18:27:43 36° SE 18:36:16 10° ENE daylight
18 Apr - 20:21:38 10° WSW 20:31:32 69° SSE 20:41:05 10° E visible
18 Apr - 22:26:17 10° W 22:36:09 80° S 22:45:38 10° E visible
19 Apr - 00:31:08 10° WNW 00:40:26 54° SSW 00:49:24 10° SE visible
19 Apr - 02:36:57 10° W 02:43:28 21° SW 02:49:53 10° S visible
19 Apr - 17:53:59 10° SSW 18:02:36 34° SE 18:10:59 10° E daylight
19 Apr - 19:56:27 10° WSW 20:06:20 67° SSE 20:15:54 10° E visible
19 Apr - 22:01:02 10° W 22:10:56 81° S 22:20:27 10° E visible
20 Apr - 00:05:53 10° WNW 00:15:17 57° SSW 00:24:20 10° SE visible
20 Apr - 02:11:30 10° W 02:18:26 23° SW 02:25:14 10° S visible
20 Apr - 17:29:05 10° SSW 17:37:29 31° SE 17:45:42 10° E daylight
20 Apr - 19:31:15 10° WSW 19:41:08 65° SSE 19:50:42 10° E visible
20 Apr - 21:35:46 10° W 21:45:43 81° S 21:55:16 10° E visible
20 Apr - 23:40:38 10° WNW 23:50:08 60° SSW 23:59:16 10° SE visible
21 Apr - 01:46:06 10° W 01:53:23 25° SW 02:00:31 10° S visible
21 Apr - 17:04:12 10° S 17:12:23 29° SE 17:20:24 10° E daylight
21 Apr - 19:06:05 10° SW 19:15:57 63° SSE 19:25:30 10° E daylight
21 Apr - 21:10:31 10° W 21:20:30 81° S 21:30:05 10° E visible
21 Apr - 23:15:23 10° W 23:24:58 62° SSW 23:34:11 10° SE visible
22 Apr - 01:20:43 10° W 01:28:20 28° SW 01:35:45 10° S visible
22 Apr - 16:39:22 10° S 16:47:17 27° SE 16:55:04 10° E daylight
22 Apr - 18:40:55 10° SW 18:50:45 61° SSE 19:00:18 10° ENE daylight
22 Apr - 20:45:15 10° W 20:55:16 81° S 21:04:54 10° E visible
22 Apr - 22:50:07 10° W 22:59:48 65° SSW 23:09:05 10° SE visible
23 Apr - 00:55:22 10° W 01:03:16 30° SW 01:10:57 10° SSE visible
23 Apr - 16:14:34 10° S 16:22:12 25° SE 16:29:43 10° E daylight
23 Apr - 18:15:46 10° SW 18:25:34 58° SSE 18:35:06 10° ENE daylight
23 Apr - 20:20:00 10° W 20:30:02 81° S 20:39:42 10° E visible
23 Apr - 22:24:52 10° W 22:34:37 67° SSW 22:43:58 10° ESE visible
24 Apr - 00:30:01 10° W 00:38:11 32° SW 00:46:07 10° SSE visible
24 Apr - 15:49:49 10° S 15:57:06 23° SE 16:04:18 10° E daylight
24 Apr - 17:50:38 10° SW 18:00:23 56° SSE 18:09:53 10° ENE daylight
24 Apr - 19:54:44 10° W 20:04:48 80° S 20:14:31 10° E visible
24 Apr - 21:59:37 10° W 22:09:26 69° SSW 22:18:50 10° ESE visible
25 Apr - 00:04:42 10° WNW 00:13:06 35° SW 00:21:15 10° SSE visible
25 Apr - 15:25:07 10° S 15:32:02 21° SE 15:38:52 10° E daylight
25 Apr - 17:25:31 10° SW 17:35:12 53° SSE 17:44:40 10° ENE daylight
25 Apr - 19:29:29 10° WSW 19:39:34 80° S 19:49:19 10° E visible
25 Apr - 21:34:21 10° W 21:44:14 71° SSW 21:53:43 10° ESE visible
25 Apr - 23:39:23 10° WNW 23:48:01 37° SW 23:56:21 10° SSE visible
26 Apr - 15:00:30 10° SSE 15:06:58 19° SE 15:13:23 10° E daylight
26 Apr - 17:00:25 10° SW 17:10:02 51° SSE 17:19:27 10° ENE daylight
26 Apr - 19:04:15 10° WSW 19:14:20 79° S 19:24:07 10° E daylight
26 Apr - 21:09:06 10° W 21:19:02 73° SSW 21:28:34 10° ESE visible
26 Apr - 23:14:05 10° WNW 23:22:55 40° SW 23:31:26 10° SSE visible
